This is the latest recevied weather packets stored in our database for station/object SV9TNF-51. If no packets are shown the sender has not sent any weather packets the latest 10 day(s).
| Time | Temp. | Humidity | Pressure | Rain* | Wind** | Luminosity | Snow |
|---|---|---|---|---|---|---|---|
| 1788205676 | 25.56° C | 68% | 1011.5 hPa | 0 mm | 7.15 m/s, 342° | - | - |
| 1788205377 | 25.56° C | 66% | 1011.5 hPa | 0 mm | 7.15 m/s, 353° | - | - |
| 1788205076 | 25.56° C | 67% | 1011.5 hPa | 0 mm | 4.02 m/s, 323° | - | - |
| 1788204776 | 25.56° C | 65% | 1011.5 hPa | 0 mm | 5.36 m/s, 322° | - | - |
| 1788204481 | 25.56° C | 66% | 1011.5 hPa | 0 mm | 3.58 m/s, 354° | - | - |
| 1788204176 | 25.56° C | 67% | 1011.5 hPa | 0 mm | 4.02 m/s, 340° | - | - |
| 1788203876 | 25.56° C | 67% | 1011.5 hPa | 0 mm | 3.13 m/s, 60° | - | - |
| 1788203576 | 25.56° C | 67% | 1011.5 hPa | 0 mm | 3.13 m/s, 98° | - | - |
| 1788203276 | 25.56° C | 67% | 1011.5 hPa | 0 mm | 1.79 m/s, 172° | - | - |
| 1788202976 | 25.56° C | 68% | 1011.5 hPa | 0 mm | 1.79 m/s, 84° | - | - |
| 1788202675 | 26.11° C | 68% | 1011.5 hPa | 0 mm | 4.02 m/s, 4° | - | - |
| 1788202375 | 26.11° C | 68% | 1011.5 hPa | 0 mm | 3.58 m/s, 337° | - | - |
| 1788202075 | 26.11° C | 68% | 1011.5 hPa | 0 mm | 4.92 m/s, 351° | - | - |
| 1788201775 | 26.11° C | 68% | 1011.5 hPa | 0 mm | 3.58 m/s, 346° | - | - |
| 1788201476 | 26.11° C | 67% | 1011.5 hPa | 0 mm | 1.79 m/s, 304° | - | - |
| 1788201175 | 26.11° C | 67% | 1011.5 hPa | 0 mm | 2.24 m/s, 139° | - | - |
| 1788200875 | 26.11° C | 66% | 1011.5 hPa | 0 mm | 4.47 m/s, 358° | - | - |
| 1788200575 | 26.11° C | 66% | 1011.5 hPa | 0 mm | 4.47 m/s, 342° | - | - |
| 1788200275 | 26.11° C | 66% | 1011.5 hPa | 0 mm | 5.81 m/s, 347° | - | - |
| 1788199975 | 26.11° C | 65% | 1011.5 hPa | 0 mm | 5.81 m/s, 359° | - | - |
| 1788199675 | 26.67° C | 65% | 1011.5 hPa | 0 mm | 4.02 m/s, 87° | - | - |
| 1788199374 | 26.67° C | 65% | 1011.5 hPa | 0 mm | 4.92 m/s, 95° | - | - |
| 1788199075 | 26.67° C | 65% | 1011.5 hPa | 0 mm | 3.58 m/s, 65° | - | - |
| 1788198774 | 26.67° C | 65% | 1011.5 hPa | 0 mm | 4.92 m/s, 312° | - | - |
| 1788198474 | 26.67° C | 64% | 1011.5 hPa | 0 mm | 1.79 m/s, 168° | - | - |
* Rain latest hour (hover to see other rain measurements)
** Current wind speed in m/s (hover to see current wind gust speed)